Zurück zum Katalog

DIRECTV 1

DBS 1

AktivKommunikationGEO
NORAD 22930·PAYLOAD·🇺🇸 United States

Gestartet Dec 18, 1993 von Guiana Space Centre

Loading…

TLE

AktuellSource: Space-Track

Epoche: Sep 13, 2026, 22:40 UTC

1 22930U 93078A   26256.94459618  .00000051  00000-0  00000-0 0  9996
2 22930  12.2664  33.1925 0011089 189.4198 165.6550  0.98983270126891

Verfolge DIRECTV 1 in Echtzeit mit AllMySat

Download on the App Store